Regional Weather Roundup
Issued by NWS Charleston, SC

Current Version | Previous Version | Graphics & Text | Print | Product List | Glossary On
Versions: 1 2 3 4 5 6 7 8 9 10 11 12 13 14 15 16 17 18 19 20 21 22 23 24 25 26 27 28 29 30 31 32 33 34 35 36 37 38 39 40 41 42 43 44 45 46 47 48 49 50
000 ASUS42 KCHS 030912 RWRCHS REGIONAL WEATHER ROUNDUP NATIONAL WEATHER SERVICE CHARLESTON SC 500 AM EDT MON AUG 03 2015 NOTE: "FAIR" INDICATES FEW OR NO CLOUDS BELOW 12,000 FEET WITH NO SIGNIFICANT WEATHER AND/OR OBSTRUCTIONS TO VISIBILITY. NOT ALL STATIONS ARE QUALITY CONTROLLED BY THE NATIONAL WEATHER SERVICE. USE DATA WITH CAUTION...ESPECIALLY DEWPOINT OBSERVATIONS. SCZ027-030-031-034>040-042>050-031000- ...SOUTHEAST SOUTH CAROLINA... CITY SKY/WX TMP DP RH WIND PRES REMARKS N CHARLESTON MOCLDY 77 74 90 S5 29.89R WATERFRONT PRK N/A 80 76 87 S8 29.86S MOUNT PLEASANT FAIR 75 75 100 S3 29.89S FOG JOHNS ISLAND FAIR 81 75 83 S6 29.89S PINOPOLIS NOT AVBL MONCKS CORNER FAIR 75 72 88 CALM 29.89S SUMMERVILLE FAIR 73 73 100 CALM 29.90S BEAUFORT MCAS CLOUDY 78 76 93 CALM 29.88S BEAUFORT ARPT CLOUDY 77 77 100 CALM 29.88S HILTON HEAD IS PTCLDY 79 75 89 SW3 29.89S WALTERBORO PTSUNNY 77 73 88 NE3 29.89S ALLENDALE FAIR 73 73 100 CALM 29.88S ...SOUTHERN MIDLANDS AND PEE DEE... CITY SKY/WX TMP DP RH WIND PRES REMARKS GEORGETOWN NOT AVBL KINGSTREE NOT AVBL ORANGEBURG PTCLDY 74 71 91 CALM 29.89S BARNWELL PTSUNNY 75 73 94 CALM 29.89S AIKEN FAIR 70 70 100 CALM 29.93S FOG MANNING RAIN 72 72 100 CALM 29.90R COLUMBIA MOCLDY 74 70 87 CALM 29.89S SUMTER CLOUDY 72 69 93 N2 29.88S FLORENCE PTCLDY 74 72 93 CALM 29.90S MYRTLE BEACH CLOUDY 75 70 83 CALM 29.92S N MYRTLE BEACH LGT RAIN 78 70 76 W6 29.90F $$ GAZ063-065-086>088-099>101-113>116-118-119-134>141-150-031000- ...SOUTHEAST GEORGIA... CITY SKY/WX TMP DP RH WIND PRES REMARKS SAVANNAH ARPT CLOUDY 77 74 90 CALM 29.87S HUNTER AAF MOCLDY 78 77 98 S1 29.85R FORT STEWART NOT AVBL STATESBORO MOCLDY 75 32 20 CALM 29.87S SYLVANIA PTSUNNY 74 74 100 CALM 29.88S CLAXTON NOT AVBL ...CSRA...CENTRAL AND FAR SOUTHEAST GEORGIA... CITY SKY/WX TMP DP RH WIND PRES REMARKS THOMSON CLOUDY 74 74 100 CALM 29.94R AUGUSTA-BUSH PTCLDY 73 72 96 CALM 29.87F AUGUSTA-DANIEL PTCLDY 75 72 90 E3 29.89F SWAINSBORO CLOUDY N/A N/A N/A E3 29.88S VIDALIA CLOUDY 75 73 94 SE6 29.86F FOG EASTMAN CLOUDY 75 75 100 CALM 29.89R HAZLEHURST DRIZZLE 76 76 100 CALM 29.85S ALMA CLOUDY 75 73 93 CALM 29.85R WAYCROSS CLOUDY 79 76 92 SE3 29.85R JESUP CLOUDY 79 75 89 CALM 29.87R BAXLEY CLOUDY 77 73 88 CALM 29.86S BRUNSWICK CLOUDY 79 73 83 S5 29.87R SAINT SIMONS CLOUDY 80 73 79 S10G20 29.86R $$ SCZ027-028-034-036>038-045-046-048>050-GAZ119-141-031000- ...LAKE AND SUPPLEMENTAL COASTAL OBSERVATIONS... STATION/POSITION TIME TEMP WIND PRES WAVE SWELL AIR SEA DIR/SP/G HT/PER HT/PER/DIR (UTC) (F) (DEG/KT/KT) (MB) (FT/S) (FT/S/D) UPR LAKE MARION NOT AVBL WINYAH BAY NOT AVBL LAKE MURRAY 0800 76 100/ 5/ 7 1011.9S ACE BASIN NERRS NOT AVBL FORT PULASKI 0800 80 86 190/ 5/ 10 1012.0S SAPELO ISLAND 0800 79 180/ 9 1011.0S $$ ANZ835-935-AMZ111-154-330-350-352-354-370-450-454-472-031000- ...C-MAN AND BUOY OBSERVATIONS... STATION/POSITION TIME TEMP WIND PRES WAVE SWELL AIR SEA DIR/SP/G HT/PER HT/PER/DIR (UTC) (F) (DEG/KT/KT) (MB) (FT/S) (FT/S/D) BUOY 41004 0850 83 83 210/ 14/ 16 1012.2R 5/ 7 3/ 7 BUOY 41008 0850 81 83 170/ 16/ 17 1011.7R 5/ 7 2/100/11 FOLLY BEACH CMAN 0800 81 200/ 14/ 16 1012.1R CAPERS NEARSHORE 0808 82 220/ 16/ 19 1012.6R FRIPP NEARSHORE 0800 82 230/ 16/ 21 1011.6F STATION/POSITION TIME TEMP WIND PRES WAVE SWELL AIR SEA DIR/SP/G HT/PER HT/PER/DIR (UTC) (F) (DEG/KT/KT) (MB) (FT/S) (FT/S/D) 5E ST. MARYS GA 0821 83 N/A 5/ 6 2/110/12 FRYING PAN BUOY 0850 83 82 190/ 16/ 17 1013.5F 6/ 6 2/140/11 BUOY 41025 0850 76 85 240/ 14/ 17 1013.4F 4/ 6 2/200/ 7 CAPE LOOKOUT NC 0800 76 230/ 12/ 17 1013.1R BUOY 41002 0850 82 81 200/ 14/ 17 1015.6R 5/ 6 2/ 80/11 BUOY 41010 0820 83 84 170/ 17/ 21 1013.7 ST AUGUSTINE FL 0900 78 78 180/ 15/ 17 1011.2F $$

USA.gov is the U.S. government's official web portal to all federal, state and local government web resources and services.